User: anonymous   Login
Location: North Runcton
(52.7000°N, 0.4333°E)
Time: 14:43:24
(UTC+00:00)
Language:

Cosmos 2084 Rocket - Orbit

View from above orbital plane
View from above orbital plane
View from above satellite
View from above satellite

Ground track
Ground track

The orbit data is extracted from the following two-line orbital elements,

1 20666U 90055D   25349.89414017  .00001570  00000-0  13029-3 0  9997
2 20666  62.7819 178.6975 0013039 311.2466  48.7509 15.03089722925597
Epoch (UTC): 15 December 2025 21:27:33
Eccentricity: 0.0013039
inclination: 62.7819°
perigee height: 548 km
apogee height: 566 km
right ascension of ascending node: 178.6975°
argument of perigee: 311.2466°
revolutions per day: 15.03089722
mean anomaly at epoch: 48.7509°
orbit number at epoch: 92559

The dashed part of the orbit path shows where the satellite is in the earth's shadow,  

DLR